• In Uzbekistan
  • List of Countries
  • For 7 days
  • Water Temperature
  • Satellite Maps
  • Weather Map
  • Weather Widgets
  • user-avatar
    Login

    Hourly Weather Lubaszowa

    Today, 20 September, Thursday

    Time Temperature Precipitation Wind Pressure Humidity
    00:00 +16°C° 0 mm 1 mps 746 mmHg 73%
    01:00 +16°C° 0 mm 1 mps 745 mmHg 74%
    02:00 +16°C° 0 mm 1 mps 745 mmHg 75%
    03:00 +15°C° 0 mm 1 mps 745 mmHg 76%
    04:00 +15°C° 0 mm 1 mps 746 mmHg 77%
    05:00 +16°C° 0 mm 1 mps 746 mmHg 75%
    06:00 +18°C° 0 mm 1 mps 746 mmHg 73%
    07:00 +19°C° 0 mm 1 mps 746 mmHg 70%
    08:00 +21°C° 0 mm 1 mps 746 mmHg 63%
    09:00 +24°C° 0 mm 1 mps 746 mmHg 55%
    10:00 +26°C° 0 mm 1 mps 746 mmHg 48%
    11:00 +27°C° 0 mm 1 mps 746 mmHg 45%
    12:00 +28°C° 0 mm 1 mps 746 mmHg 41%
    13:00 +29°C° 0 mm 1 mps 746 mmHg 38%
    14:00 +28°C° 0 mm 1 mps 745 mmHg 41%
    15:00 +28°C° 0 mm 1 mps 745 mmHg 44%
    16:00 +27°C° 0 mm 1 mps 745 mmHg 47%
    17:00 +25°C° 0 mm 1 mps 745 mmHg 51%
    18:00 +23°C° 0 mm 1 mps 745 mmHg 56%
    19:00 +21°C° 0 mm 1 mps 745 mmHg 60%
    20:00 +20°C° 0 mm 1 mps 744 mmHg 63%
    21:00 +19°C° 0 mm 1 mps 744 mmHg 67%
    22:00 +19°C° 0 mm 1 mps 744 mmHg 70%
    23:00 +18°C° 0 mm 1 mps 744 mmHg 72%

    Tomorrow, 21 September, Friday

    Time Temperature Precipitation Wind Pressure Humidity
    00:00 +18°C° 0 mm 1 mps 744 mmHg 74%
    01:00 +16°C° 0 mm 1 mps 744 mmHg 76%
    02:00 +16°C° 0 mm 1 mps 744 mmHg 77%
    03:00 +16°C° 0 mm 1 mps 744 mmHg 78%
    04:00 +16°C° 0 mm 1 mps 743 mmHg 79%
    05:00 +16°C° 0 mm 1 mps 743 mmHg 77%
    06:00 +18°C° 0 mm 1 mps 743 mmHg 75%
    07:00 +19°C° 0 mm 1 mps 743 mmHg 73%
    08:00 +20°C° 0 mm 2 mps 743 mmHg 65%
    09:00 +24°C° 0 mm 2 mps 743 mmHg 57%
    10:00 +26°C° 0 mm 3 mps 743 mmHg 49%
    11:00 +27°C° 0 mm 3 mps 743 mmHg 46%
    12:00 +28°C° 0 mm 3 mps 742 mmHg 43%
    13:00 +29°C° 0 mm 4 mps 742 mmHg 40%
    14:00 +28°C° 0 mm 3 mps 741 mmHg 43%
    15:00 +28°C° 0 mm 3 mps 741 mmHg 46%
    16:00 +27°C° 0 mm 3 mps 740 mmHg 49%
    17:00 +25°C° 0 mm 3 mps 740 mmHg 53%
    18:00 +22°C° 0 mm 3 mps 740 mmHg 58%
    19:00 +20°C° 0 mm 3 mps 740 mmHg 62%
    20:00 +20°C° 0 mm 3 mps 740 mmHg 62%
    21:00 +19°C° 0 mm 3 mps 740 mmHg 63%
    22:00 +19°C° 0 mm 3 mps 740 mmHg 63%
    23:00 +19°C° 0 mm 3 mps 740 mmHg 61%

    Day after tomorrow, 22 September, Saturday

    Time Temperature Precipitation Wind Pressure Humidity
    00:00 +19°C° 0 mm 3 mps 740 mmHg 59%
    01:00 +19°C° 0 mm 3 mps 740 mmHg 57%
    02:00 +18°C° 0.1 mm 4 mps 741 mmHg 62%
    03:00 +18°C° 0.1 mm 4 mps 741 mmHg 68%
    04:00 +16°C° 0.1 mm 5 mps 742 mmHg 73%
    05:00 +15°C° 0.3 mm 4 mps 743 mmHg 78%
    06:00 +14°C° 0.3 mm 4 mps 743 mmHg 82%
    07:00 +13°C° 0.3 mm 4 mps 744 mmHg 86%
    08:00 +13°C° 0.8 mm 3 mps 744 mmHg 86%
    09:00 +13°C° 0.8 mm 3 mps 745 mmHg 86%
    10:00 +12°C° 0.8 mm 3 mps 745 mmHg 85%
    11:00 +12°C° 1.2 mm 3 mps 745 mmHg 84%
    12:00 +13°C° 1.2 mm 2 mps 745 mmHg 82%
    13:00 +13°C° 1.2 mm 2 mps 745 mmHg 81%
    14:00 +14°C° 0.1 mm 2 mps 745 mmHg 76%
    15:00 +14°C° 0.1 mm 2 mps 745 mmHg 72%
    16:00 +15°C° 0.1 mm 2 mps 745 mmHg 67%
    17:00 +14°C° 0 mm 2 mps 745 mmHg 70%
    18:00 +13°C° 0 mm 2 mps 745 mmHg 74%
    19:00 +10°C° 0 mm 2 mps 746 mmHg 77%
    20:00 +10°C° 0 mm 2 mps 746 mmHg 77%
    21:00 +10°C° 0 mm 2 mps 746 mmHg 76%
    22:00 +10°C° 0 mm 2 mps 746 mmHg 76%
    23:00 +10°C° 0 mm 2 mps 746 mmHg 76%

    23 September, Sunday

    Time Temperature Precipitation Wind Pressure Humidity
    00:00 +9°C° 0 mm 2 mps 746 mmHg 77%
    01:00 +9°C° 0 mm 2 mps 746 mmHg 77%
    02:00 +9°C° 0 mm 2 mps 746 mmHg 77%
    03:00 +9°C° 0 mm 2 mps 746 mmHg 78%
    04:00 +8°C° 0 mm 2 mps 746 mmHg 79%
    05:00 +9°C° 0 mm 2 mps 746 mmHg 76%
    06:00 +10°C° 0 mm 2 mps 745 mmHg 74%
    07:00 +11°C° 0 mm 3 mps 745 mmHg 72%
    08:00 +12°C° 0 mm 3 mps 745 mmHg 65%
    09:00 +14°C° 0 mm 3 mps 745 mmHg 58%
    10:00 +17°C° 0 mm 4 mps 745 mmHg 52%
    11:00 +18°C° 0 mm 4 mps 744 mmHg 49%
    12:00 +19°C° 0 mm 4 mps 744 mmHg 46%
    13:00 +19°C° 0 mm 4 mps 743 mmHg 44%
    14:00 +19°C° 0 mm 4 mps 742 mmHg 49%
    15:00 +18°C° 0 mm 3 mps 741 mmHg 54%
    16:00 +17°C° 0 mm 3 mps 740 mmHg 59%
    17:00 +17°C° 0.2 mm 4 mps 740 mmHg 64%
    18:00 +15°C° 0.2 mm 5 mps 739 mmHg 68%
    19:00 +15°C° 0.2 mm 6 mps 738 mmHg 72%
    20:00 +15°C° 0.6 mm 6 mps 737 mmHg 73%
    21:00 +15°C° 0.6 mm 6 mps 737 mmHg 74%
    22:00 +15°C° 0.6 mm 7 mps 736 mmHg 75%
    23:00 +15°C° 0 mm 7 mps 735 mmHg 72%

    24 September, Monday

    Time Temperature Precipitation Wind Pressure Humidity
    00:00 +16°C° 0 mm 7 mps 734 mmHg 69%
    01:00 +16°C° 0 mm 8 mps 733 mmHg 66%
    02:00 +16°C° 0.5 mm 8 mps 733 mmHg 70%
    03:00 +16°C° 0.5 mm 8 mps 732 mmHg 75%
    04:00 +16°C° 0.5 mm 8 mps 731 mmHg 79%
    05:00 +15°C° 0.9 mm 9 mps 732 mmHg 79%
    06:00 +13°C° 0.9 mm 10 mps 733 mmHg 78%
    07:00 +11°C° 0.9 mm 11 mps 734 mmHg 77%
    08:00 +11°C° 0.1 mm 10 mps 736 mmHg 77%
    09:00 +10°C° 0.1 mm 9 mps 737 mmHg 76%
    10:00 +8°C° 0.1 mm 9 mps 739 mmHg 75%
    11:00 +8°C° 0.1 mm 9 mps 740 mmHg 70%
    12:00 +10°C° 0.1 mm 9 mps 741 mmHg 65%
    13:00 +10°C° 0.1 mm 9 mps 742 mmHg 60%
    14:00 +11°C° 0 mm 9 mps 742 mmHg 59%
    15:00 +11°C° 0 mm 9 mps 743 mmHg 57%
    16:00 +11°C° 0 mm 8 mps 744 mmHg 55%
    17:00 +10°C° 0 mm 7 mps 744 mmHg 59%
    18:00 +10°C° 0 mm 5 mps 745 mmHg 63%
    19:00 +10°C° 0 mm 4 mps 746 mmHg 66%
    20:00 +8°C° 0 mm 4 mps 746 mmHg 70%
    21:00 +8°C° 0 mm 4 mps 747 mmHg 73%
    22:00 +7°C° 0 mm 4 mps 747 mmHg 77%
    23:00 +7°C° 0.1 mm 4 mps 748 mmHg 80%

    25 September, Tuesday

    Time Temperature Precipitation Wind Pressure Humidity
    00:00 +7°C° 0.1 mm 4 mps 748 mmHg 83%
    01:00 +6°C° 0.1 mm 4 mps 748 mmHg 86%
    02:00 +6°C° 0 mm 4 mps 749 mmHg 88%
    03:00 +5°C° 0 mm 4 mps 749 mmHg 89%
    04:00 +5°C° 0 mm 4 mps 749 mmHg 90%
    05:00 +5°C° 0 mm 4 mps 749 mmHg 88%
    06:00 +6°C° 0 mm 5 mps 750 mmHg 85%
    07:00 +6°C° 0 mm 5 mps 750 mmHg 82%
    08:00 +7°C° 0.1 mm 6 mps 750 mmHg 76%
    09:00 +8°C° 0.1 mm 6 mps 750 mmHg 70%
    10:00 +9°C° 0.1 mm 6 mps 750 mmHg 64%
    11:00 +10°C° 0.1 mm 6 mps 750 mmHg 60%
    12:00 +11°C° 0.1 mm 6 mps 750 mmHg 55%
    13:00 +11°C° 0.1 mm 6 mps 749 mmHg 51%
    14:00 +11°C° 0 mm 6 mps 749 mmHg 51%
    15:00 +12°C° 0 mm 5 mps 749 mmHg 52%
    16:00 +12°C° 0 mm 4 mps 748 mmHg 53%
    17:00 +11°C° 0 mm 4 mps 749 mmHg 58%
    18:00 +8°C° 0 mm 4 mps 749 mmHg 64%
    19:00 +8°C° 0 mm 3 mps 749 mmHg 69%
    20:00 +8°C° 0.3 mm 3 mps 750 mmHg 75%
    21:00 +8°C° 0.3 mm 3 mps 750 mmHg 81%
    22:00 +8°C° 0.3 mm 3 mps 750 mmHg 87%
    23:00 +7°C° 0.2 mm 3 mps 750 mmHg 90%
    Show more